QPF
0.05 0.05 0.05 0.06 0.09 0.11 0.11 0.08 0.08 0.08 0.07 0.09 0.10 0.13 0.15 0.12 0.10 0.11 0.13 0.11 0.08 0.10 0.10 0.09 0.10 0.13 0.12 0.09 0.09 0.07 0.07 0.07 0.06 0.05 0.05 0.06 0.05 0.05 0.04 0.04 0.04 0.04 0.05
0.05 0.06 0.05 0.05 0.06 0.08 0.09 0.09 0.08 0.08 0.07 0.07 0.07 0.09 0.10 0.09 0.08 0.09 0.12 0.12 0.10 0.11 0.11 0.10 0.11 0.12 0.11 0.08 0.09 0.08 0.07 0.07 0.06 0.04 0.04 0.05 0.05 0.04 0.04 0.04 0.04 0.04 0.04
0.04 0.04 0.04 0.04 0.07 0.08 0.08 0.09 0.09 0.09 0.07 0.06 0.05 0.07 0.09 0.09 0.07 0.07 0.10 0.12 0.11 0.14 0.15 0.13 0.12 0.12 0.11 0.08 0.07 0.06 0.05 0.06 0.06 0.05 0.05 0.05 0.05 0.05 0.04 0.05 0.04 0.04 0.03
0.02 0.03 0.03 0.03 0.06 0.07 0.08 0.08 0.08 0.07 0.07 0.07 0.06 0.07 0.09 0.10 0.07 0.06 0.07 0.10 0.12 0.15 0.17 0.16 0.14 0.12 0.13 0.11 0.09 0.07 0.05 0.05 0.07 0.09 0.09 0.08 0.06 0.06 0.06 0.04 0.03 0.03 0.03
0.01 0.02 0.03 0.03 0.03 0.04 0.05 0.06 0.06 0.06 0.05 0.06 0.06 0.07 0.08 0.08 0.08 0.07 0.08 0.09 0.11 0.14 0.16 0.20 0.21 0.17 0.16 0.14 0.13 0.13 0.10 0.08 0.07 0.09 0.11 0.10 0.09 0.08 0.08 0.05 0.04 0.03 0.03
0.02 0.02 0.04 0.04 0.03 0.04 0.04 0.06 0.07 0.06 0.05 0.05 0.05 0.07 0.07 0.07 0.07 0.09 0.10 0.11 0.10 0.11 0.14 0.17 0.17 0.15 0.13 0.11 0.12 0.11 0.11 0.10 0.08 0.06 0.08 0.11 0.09 0.08 0.08 0.08 0.07 0.06 0.05
0.04 0.04 0.04 0.06 0.05 0.05 0.04 0.05 0.08 0.08 0.07 0.06 0.06 0.07 0.06 0.06 0.06 0.08 0.10 0.13 0.15 0.11 0.11 0.10 0.08 0.08 0.08 0.08 0.09 0.09 0.09 0.09 0.08 0.07 0.06 0.10 0.11 0.07 0.05 0.05 0.04 0.04 0.05
0.07 0.07 0.06 0.06 0.06 0.06 0.07 0.06 0.07 0.07 0.06 0.05 0.05 0.05 0.06 0.06 0.05 0.04 0.06 0.10 0.17 0.15 0.11 0.08 0.07 0.07 0.06 0.07 0.07 0.07 0.09 0.09 0.08 0.07 0.07 0.07 0.08 0.05 0.03 0.02 0.02 0.02 0.02
0.05 0.06 0.07 0.07 0.08 0.07 0.07 0.07 0.07 0.06 0.05 0.05 0.05 0.07 0.07 0.06 0.04 0.04 0.03 0.05 0.14 0.15 0.10 0.09 0.06 0.04 0.04 0.06 0.06 0.06 0.07 0.07 0.08 0.09 0.09 0.07 0.05 0.04 0.03 0.02 0.02 0.02 0.02
0.03 0.04 0.05 0.07 0.09 0.07 0.06 0.05 0.05 0.05 0.05 0.05 0.05 0.05 0.06 0.05 0.06 0.05 0.03 0.04 0.08 0.13 0.10 0.07 0.06 0.04 0.05 0.06 0.06 0.06 0.06 0.05 0.06 0.08 0.09 0.09 0.08 0.06 0.05 0.03 0.03 0.02 0.02
0.03 0.04 0.05 0.08 0.09 0.08 0.06 0.04 0.06 0.06 0.05 0.05 0.05 0.04 0.04 0.04 0.04 0.04 0.04 0.04 0.05 0.07 0.08 0.08 0.08 0.07 0.06 0.05 0.06 0.06 0.07 0.07 0.06 0.06 0.07 0.10 0.12 0.10 0.09 0.06 0.05 0.04 0.04
0.03 0.03 0.05 0.08 0.08 0.06 0.06 0.05 0.07 0.07 0.06 0.06 0.06 0.06 0.06 0.05 0.05 0.04 0.04 0.04 0.04 0.04 0.05 0.05 0.05 0.06 0.07 0.05 0.05 0.06 0.06 0.06 0.06 0.05 0.05 0.05 0.08 0.10 0.09 0.08 0.07 0.06 0.06
0.04 0.05 0.05 0.06 0.06 0.05 0.05 0.05 0.05 0.06 0.05 0.06 0.06 0.06 0.07 0.06 0.06 0.06 0.05 0.05 0.04 0.04 0.03 0.03 0.03 0.03 0.03 0.04 0.04 0.04 0.04 0.04 0.05 0.05 0.05 0.04 0.05 0.07 0.07 0.07 0.05 0.05 0.05
0.06 0.05 0.05 0.05 0.04 0.04 0.04 0.04 0.04 0.05 0.04 0.05 0.04 0.05 0.06 0.05 0.05 0.05 0.05 0.06 0.05 0.04 0.04 0.04 0.03 0.02 0.02 0.03 0.04 0.04 0.04 0.04 0.05 0.05 0.05 0.04 0.05 0.06 0.07 0.07 0.06 0.05 0.04
0.05 0.03 0.03 0.03 0.03 0.03 0.04 0.04 0.04 0.04 0.04 0.05 0.05 0.05 0.05 0.04 0.04 0.04 0.05 0.06 0.07 0.06 0.05 0.05 0.04 0.02 0.03 0.03 0.04 0.04 0.04 0.05 0.05 0.05 0.06 0.06 0.05 0.05 0.06 0.08 0.09 0.08 0.05
0.04 0.03 0.02 0.02 0.02 0.02 0.02 0.03 0.03 0.03 0.04 0.04 0.05 0.05 0.05 0.05 0.06 0.06 0.07 0.06 0.07 0.06 0.05 0.04 0.04 0.03 0.03 0.04 0.04 0.04 0.05 0.04 0.03 0.03 0.03 0.04 0.05 0.05 0.04 0.04 0.03 0.04 0.04
0.03 0.02 0.02 0.02 0.02 0.02 0.03 0.03 0.04 0.03 0.04 0.04 0.03 0.03 0.03 0.03 0.05 0.06 0.07 0.06 0.05 0.05 0.04 0.03 0.03 0.03 0.03 0.04 0.07 0.06 0.05 0.05 0.03 0.03 0.02 0.02 0.02 0.03 0.04 0.04 0.02 0.02 0.02
0.03 0.03 0.02 0.02 0.02 0.02 0.03 0.02 0.03 0.02 0.03 0.03 0.03 0.03 0.03 0.03 0.04 0.04 0.04 0.04 0.04 0.04 0.04 0.04 0.04 0.03 0.04 0.04 0.07 0.09 0.08 0.07 0.07 0.06 0.05 0.04 0.03 0.03 0.03 0.04 0.03 0.03 0.02
0.03 0.02 0.02 0.02 0.02 0.02 0.02 0.01 0.02 0.02 0.02 0.02 0.03 0.03 0.03 0.03 0.04 0.04 0.04 0.04 0.03 0.03 0.03 0.04 0.04 0.04 0.03 0.04 0.05 0.07 0.09 0.10 0.09 0.08 0.07 0.06 0.05 0.05 0.05 0.05 0.05 0.04 0.03
0.03 0.02 0.01 0.01 0.01 0.01 0.01 0.01 0.01 0.02 0.02 0.02 0.03 0.03 0.03 0.02 0.03 0.03 0.03 0.04 0.03 0.03 0.03 0.03 0.04 0.04 0.04 0.03 0.04 0.05 0.06 0.07 0.08 0.06 0.05 0.04 0.04 0.04 0.05 0.04 0.04 0.03 0.03
0.03 0.03 0.02 0.01 0.01 0.01 0.01 0.01 0.01 0.01 0.02 0.03 0.03 0.03 0.02 0.02 0.02 0.02 0.02 0.03 0.04 0.04 0.03 0.03 0.03 0.03 0.03 0.03 0.03 0.04 0.04 0.04 0.04 0.04 0.03 0.02 0.01 0.02 0.04 0.04 0.04 0.04 0.04
0.04 0.04 0.03 0.02 0.01 0.01 0.01 0.01 0.01 0.02 0.02 0.03 0.03 0.03 0.02 0.02 0.02 0.01 0.01 0.01 0.02 0.03 0.03 0.03 0.04 0.04 0.03 0.03 0.03 0.03 0.03 0.03 0.03 0.03 0.04 0.03 0.02 0.02 0.03 0.04 0.04 0.04 0.03
0.04 0.04 0.03 0.03 0.02 0.01 0.01 0.01 0.01 0.01 0.02 0.02 0.03 0.03 0.03 0.02 0.02 0.01 0.01 0.01 0.01 0.01 0.02 0.04 0.05 0.05 0.05 0.05 0.04 0.03 0.03 0.03 0.03 0.02 0.03 0.03 0.03 0.04 0.03 0.04 0.04 0.04 0.04
0.04 0.04 0.03 0.03 0.02 0.02 0.02 0.01 0.02 0.02 0.02 0.03 0.02 0.03 0.03 0.03 0.02 0.02 0.01 0.01 0.01 0.01 0.01 0.02 0.03 0.05 0.05 0.05 0.04 0.04 0.03 0.03 0.02 0.02 0.02 0.03 0.02 0.02 0.02 0.03 0.04 0.04 0.03
0.05 0.05 0.04 0.03 0.02 0.01 0.02 0.02 0.02 0.02 0.02 0.02 0.02 0.01 0.02 0.02 0.02 0.02 0.02 0.03 0.03 0.03 0.01 0.01 0.02 0.03 0.03 0.03 0.03 0.03 0.03 0.02 0.02 0.02 0.02 0.03 0.02 0.02 0.02 0.03 0.03 0.04 0.03
0.04 0.05 0.04 0.03 0.01 0.01 0.02 0.02 0.02 0.02 0.01 0.01 0.01 0.01 0.01 0.01 0.01 0.01 0.02 0.03 0.04 0.04 0.03 0.02 0.02 0.02 0.02 0.02 0.02 0.02 0.02 0.03 0.03 0.03 0.03 0.03 0.02 0.02 0.02 0.03 0.03 0.03 0.03
MSLP
1010.93 1011.18 1011.40 1011.62 1011.86 1012.13 1012.42 1012.71 1012.98 1013.20 1013.35 1013.43 1013.47 1013.48 1013.53 1013.66 1013.89 1014.24 1014.71 1015.26 1015.83 1016.40 1016.90 1017.33 1017.66 1017.91 1018.11 1018.29 1018.46 1018.64 1018.84 1019.04 1019.23 1019.40 1019.55 1019.67 1019.77 1019.85 1019.94 1020.02 1020.11 1020.19 1020.27
1010.85 1011.13 1011.38 1011.62 1011.87 1012.14 1012.43 1012.74 1013.03 1013.28 1013.47 1013.59 1013.65 1013.67 1013.70 1013.79 1013.95 1014.23 1014.62 1015.10 1015.63 1016.18 1016.70 1017.16 1017.55 1017.86 1018.10 1018.30 1018.48 1018.65 1018.82 1018.98 1019.14 1019.29 1019.42 1019.53 1019.63 1019.72 1019.81 1019.90 1019.98 1020.05 1020.11
1010.87 1011.19 1011.48 1011.75 1012.01 1012.29 1012.58 1012.89 1013.19 1013.46 1013.68 1013.82 1013.90 1013.93 1013.95 1013.98 1014.08 1014.27 1014.57 1014.95 1015.41 1015.91 1016.41 1016.88 1017.29 1017.64 1017.93 1018.17 1018.37 1018.54 1018.70 1018.85 1018.99 1019.12 1019.25 1019.36 1019.47 1019.56 1019.65 1019.74 1019.81 1019.87 1019.92
1010.89 1011.27 1011.61 1011.92 1012.20 1012.48 1012.78 1013.08 1013.38 1013.66 1013.89 1014.06 1014.17 1014.21 1014.22 1014.23 1014.27 1014.37 1014.56 1014.84 1015.20 1015.62 1016.07 1016.51 1016.93 1017.30 1017.62 1017.89 1018.11 1018.31 1018.48 1018.63 1018.77 1018.91 1019.04 1019.15 1019.26 1019.36 1019.45 1019.53 1019.60 1019.64 1019.67
1010.82 1011.27 1011.66 1012.01 1012.32 1012.62 1012.91 1013.21 1013.50 1013.79 1014.04 1014.24 1014.38 1014.46 1014.48 1014.48 1014.48 1014.52 1014.61 1014.79 1015.04 1015.36 1015.72 1016.11 1016.49 1016.85 1017.18 1017.48 1017.73 1017.96 1018.15 1018.33 1018.49 1018.65 1018.79 1018.91 1019.03 1019.13 1019.21 1019.28 1019.33 1019.36 1019.38
1010.59 1011.10 1011.55 1011.94 1012.29 1012.60 1012.89 1013.19 1013.49 1013.78 1014.06 1014.30 1014.48 1014.61 1014.68 1014.70 1014.69 1014.69 1014.72 1014.80 1014.94 1015.14 1015.40 1015.70 1016.03 1016.36 1016.68 1016.98 1017.26 1017.52 1017.75 1017.97 1018.16 1018.34 1018.49 1018.63 1018.75 1018.84 1018.92 1018.97 1019.00 1019.02 1019.02
1010.18 1010.73 1011.23 1011.67 1012.05 1012.39 1012.70 1013.00 1013.31 1013.62 1013.92 1014.21 1014.45 1014.65 1014.78 1014.85 1014.87 1014.85 1014.84 1014.85 1014.89 1014.98 1015.13 1015.34 1015.58 1015.86 1016.15 1016.45 1016.75 1017.03 1017.30 1017.55 1017.78 1017.98 1018.16 1018.31 1018.43 1018.51 1018.57 1018.61 1018.62 1018.62 1018.61
1009.59 1010.18 1010.73 1011.21 1011.64 1012.01 1012.35 1012.67 1012.99 1013.32 1013.65 1013.98 1014.29 1014.55 1014.76 1014.89 1014.96 1014.97 1014.94 1014.90 1014.87 1014.87 1014.91 1015.02 1015.18 1015.38 1015.64 1015.92 1016.22 1016.52 1016.82 1017.11 1017.37 1017.60 1017.79 1017.94 1018.06 1018.13 1018.17 1018.19 1018.18 1018.17 1018.15
1008.89 1009.51 1010.10 1010.64 1011.12 1011.54 1011.91 1012.25 1012.59 1012.94 1013.30 1013.66 1014.02 1014.35 1014.62 1014.82 1014.95 1015.00 1014.98 1014.91 1014.84 1014.77 1014.73 1014.74 1014.82 1014.96 1015.16 1015.42 1015.71 1016.03 1016.35 1016.65 1016.94 1017.18 1017.38 1017.54 1017.65 1017.71 1017.74 1017.73 1017.71 1017.68 1017.65
1008.14 1008.80 1009.43 1010.02 1010.56 1011.03 1011.44 1011.82 1012.18 1012.54 1012.91 1013.29 1013.68 1014.04 1014.37 1014.63 1014.81 1014.90 1014.91 1014.85 1014.75 1014.64 1014.55 1014.49 1014.51 1014.59 1014.75 1014.97 1015.25 1015.56 1015.89 1016.20 1016.50 1016.75 1016.96 1017.11 1017.21 1017.26 1017.27 1017.25 1017.22 1017.18 1017.14
1007.39 1008.08 1008.76 1009.41 1010.00 1010.53 1011.00 1011.41 1011.78 1012.15 1012.52 1012.90 1013.29 1013.67 1014.02 1014.31 1014.54 1014.67 1014.71 1014.68 1014.59 1014.46 1014.34 1014.26 1014.22 1014.27 1014.39 1014.58 1014.84 1015.14 1015.45 1015.77 1016.06 1016.31 1016.51 1016.66 1016.75 1016.80 1016.81 1016.79 1016.75 1016.70 1016.67
1006.64 1007.36 1008.09 1008.79 1009.45 1010.04 1010.55 1011.00 1011.40 1011.76 1012.12 1012.48 1012.85 1013.22 1013.57 1013.88 1014.14 1014.31 1014.39 1014.39 1014.33 1014.22 1014.11 1014.01 1013.96 1013.98 1014.07 1014.24 1014.48 1014.75 1015.06 1015.36 1015.64 1015.88 1016.08 1016.22 1016.31 1016.36 1016.37 1016.35 1016.32 1016.29 1016.25
1005.86 1006.62 1007.39 1008.14 1008.86 1009.50 1010.07 1010.56 1010.97 1011.34 1011.68 1012.02 1012.35 1012.70 1013.04 1013.36 1013.63 1013.83 1013.96 1014.01 1013.99 1013.92 1013.83 1013.75 1013.70 1013.71 1013.79 1013.94 1014.15 1014.41 1014.69 1014.97 1015.23 1015.47 1015.65 1015.80 1015.89 1015.95 1015.98 1015.98 1015.97 1015.96 1015.93
1005.04 1005.80 1006.60 1007.40 1008.16 1008.86 1009.48 1010.00 1010.45 1010.82 1011.16 1011.47 1011.79 1012.11 1012.44 1012.75 1013.04 1013.28 1013.45 1013.55 1013.59 1013.57 1013.51 1013.46 1013.43 1013.44 1013.51 1013.65 1013.84 1014.07 1014.33 1014.60 1014.85 1015.07 1015.25 1015.40 1015.51 1015.59 1015.65 1015.68 1015.71 1015.72 1015.72
1004.14 1004.90 1005.71 1006.53 1007.33 1008.07 1008.73 1009.30 1009.78 1010.18 1010.52 1010.84 1011.14 1011.46 1011.78 1012.10 1012.41 1012.68 1012.90 1013.05 1013.14 1013.17 1013.16 1013.14 1013.13 1013.15 1013.22 1013.35 1013.52 1013.74 1013.98 1014.23 1014.47 1014.69 1014.88 1015.04 1015.17 1015.28 1015.37 1015.45 1015.51 1015.56 1015.59
1003.20 1003.94 1004.73 1005.55 1006.36 1007.13 1007.84 1008.45 1008.97 1009.40 1009.77 1010.10 1010.42 1010.75 1011.09 1011.43 1011.76 1012.07 1012.33 1012.53 1012.66 1012.74 1012.77 1012.78 1012.78 1012.82 1012.89 1013.01 1013.18 1013.39 1013.62 1013.86 1014.10 1014.32 1014.52 1014.69 1014.85 1014.99 1015.12 1015.25 1015.35 1015.45 1015.51
1002.30 1002.98 1003.73 1004.52 1005.32 1006.10 1006.83 1007.48 1008.04 1008.52 1008.93 1009.30 1009.66 1010.02 1010.38 1010.75 1011.12 1011.46 1011.76 1011.99 1012.16 1012.27 1012.33 1012.36 1012.39 1012.43 1012.51 1012.63 1012.80 1013.01 1013.24 1013.48 1013.72 1013.95 1014.16 1014.36 1014.54 1014.71 1014.87 1015.03 1015.18 1015.31 1015.41
1001.53 1002.12 1002.80 1003.54 1004.31 1005.08 1005.82 1006.49 1007.08 1007.60 1008.06 1008.48 1008.88 1009.28 1009.68 1010.08 1010.48 1010.85 1011.17 1011.43 1011.63 1011.76 1011.84 1011.88 1011.92 1011.98 1012.07 1012.21 1012.38 1012.60 1012.85 1013.10 1013.35 1013.59 1013.81 1014.02 1014.21 1014.40 1014.58 1014.77 1014.94 1015.10 1015.22
1000.96 1001.46 1002.05 1002.72 1003.43 1004.17 1004.88 1005.55 1006.17 1006.72 1007.21 1007.67 1008.11 1008.55 1008.98 1009.41 1009.83 1010.22 1010.57 1010.85 1011.06 1011.20 1011.30 1011.36 1011.41 1011.49 1011.60 1011.76 1011.96 1012.20 1012.46 1012.73 1013.00 1013.24 1013.47 1013.67 1013.86 1014.05 1014.23 1014.41 1014.59 1014.75 1014.88
1000.62 1001.02 1001.51 1002.09 1002.74 1003.41 1004.09 1004.74 1005.35 1005.91 1006.42 1006.91 1007.37 1007.83 1008.29 1008.74 1009.18 1009.58 1009.94 1010.23 1010.45 1010.61 1010.73 1010.81 1010.89 1011.00 1011.14 1011.33 1011.56 1011.83 1012.12 1012.41 1012.68 1012.93 1013.15 1013.33 1013.50 1013.65 1013.81 1013.96 1014.11 1014.26 1014.38
1000.49 1000.79 1001.18 1001.67 1002.23 1002.83 1003.44 1004.05 1004.64 1005.18 1005.70 1006.19 1006.67 1007.14 1007.61 1008.07 1008.52 1008.93 1009.30 1009.60 1009.85 1010.03 1010.18 1010.30 1010.42 1010.56 1010.75 1010.98 1011.25 1011.56 1011.87 1012.18 1012.45 1012.69 1012.88 1013.02 1013.14 1013.24 1013.33 1013.43 1013.53 1013.63 1013.72
1000.47 1000.67 1000.97 1001.36 1001.83 1002.35 1002.90 1003.46 1004.00 1004.52 1005.02 1005.51 1005.99 1006.46 1006.94 1007.41 1007.87 1008.30 1008.69 1009.02 1009.30 1009.52 1009.71 1009.88 1010.06 1010.26 1010.50 1010.77 1011.09 1011.42 1011.75 1012.06 1012.33 1012.53 1012.68 1012.77 1012.82 1012.84 1012.84 1012.86 1012.88 1012.92 1012.95
1000.45 1000.56 1000.77 1001.07 1001.45 1001.90 1002.38 1002.89 1003.39 1003.89 1004.38 1004.86 1005.34 1005.82 1006.32 1006.81 1007.29 1007.75 1008.17 1008.55 1008.87 1009.16 1009.41 1009.64 1009.88 1010.14 1010.43 1010.75 1011.09 1011.44 1011.78 1012.08 1012.32 1012.48 1012.57 1012.59 1012.55 1012.48 1012.39 1012.30 1012.23 1012.18 1012.14
1000.29 1000.33 1000.46 1000.69 1001.00 1001.38 1001.82 1002.28 1002.77 1003.26 1003.75 1004.24 1004.75 1005.26 1005.79 1006.31 1006.84 1007.34 1007.82 1008.26 1008.65 1009.00 1009.32 1009.62 1009.92 1010.24 1010.56 1010.91 1011.27 1011.62 1011.95 1012.22 1012.41 1012.53 1012.55 1012.50 1012.37 1012.20 1012.01 1011.81 1011.64 1011.49 1011.37
999.97 999.93 999.99 1000.16 1000.42 1000.76 1001.17 1001.63 1002.13 1002.64 1003.17 1003.71 1004.26 1004.83 1005.41 1006.00 1006.59 1007.16 1007.70 1008.21 1008.67 1009.10 1009.48 1009.84 1010.19 1010.53 1010.88 1011.23 1011.58 1011.90 1012.19 1012.42 1012.57 1012.63 1012.59 1012.46 1012.26 1012.01 1011.72 1011.43 1011.15 1010.91 1010.71
999.51 999.40 999.40 999.51 999.74 1000.07 1000.49 1000.98 1001.51 1002.09 1002.69 1003.31 1003.95 1004.60 1005.26 1005.93 1006.59 1007.23 1007.84 1008.42 1008.94 1009.42 1009.86 1010.25 1010.62 1010.97 1011.30 1011.62 1011.93 1012.21 1012.45 1012.62 1012.72 1012.72 1012.64 1012.46 1012.20 1011.88 1011.52 1011.15 1010.79 1010.46 1010.18
Thickness
5751 5750 5748 5747 5748 5746 5745 5744 5744 5743 5743 5742 5742 5742 5741 5741 5740 5739 5736 5732 5731 5730 5729 5728 5727 5726 5725 5724 5724 5723 5723 5722 5722 5721 5719 5718 5717 5716 5715 5714 5713 5713 5712
5748 5747 5747 5745 5746 5745 5743 5743 5743 5742 5741 5740 5740 5739 5739 5738 5737 5736 5735 5732 5729 5728 5727 5726 5725 5724 5723 5723 5722 5722 5721 5720 5719 5718 5717 5716 5715 5714 5713 5712 5712 5711 5710
5746 5745 5745 5744 5744 5743 5741 5741 5741 5740 5739 5739 5738 5738 5737 5736 5736 5734 5734 5733 5730 5727 5726 5725 5724 5723 5722 5721 5720 5719 5718 5718 5717 5716 5715 5714 5713 5712 5711 5710 5710 5709 5708
5743 5742 5743 5743 5741 5741 5741 5740 5740 5738 5737 5737 5737 5737 5736 5735 5734 5733 5732 5731 5730 5729 5725 5724 5722 5721 5720 5720 5718 5717 5716 5716 5715 5714 5713 5712 5711 5710 5709 5708 5707 5707 5706
5741 5741 5741 5741 5740 5740 5739 5740 5739 5737 5735 5734 5735 5734 5735 5734 5732 5732 5731 5730 5728 5727 5726 5722 5721 5719 5719 5718 5717 5715 5714 5714 5713 5712 5711 5710 5709 5708 5707 5706 5705 5704 5704
5738 5738 5738 5737 5738 5737 5736 5736 5734 5733 5733 5732 5733 5732 5732 5732 5732 5732 5730 5729 5726 5725 5724 5723 5721 5719 5717 5716 5715 5714 5713 5712 5711 5710 5709 5708 5707 5706 5705 5704 5703 5702 5702
5736 5735 5736 5734 5734 5734 5733 5733 5732 5730 5729 5730 5728 5726 5729 5730 5730 5729 5729 5728 5727 5725 5723 5721 5720 5720 5717 5714 5713 5712 5711 5710 5708 5708 5707 5706 5705 5704 5703 5702 5701 5700 5699
5734 5734 5732 5732 5731 5730 5729 5728 5727 5727 5727 5727 5725 5722 5721 5723 5725 5728 5727 5726 5725 5724 5723 5721 5719 5717 5717 5716 5713 5711 5709 5708 5707 5705 5705 5704 5702 5702 5701 5700 5699 5698 5697
5731 5730 5730 5729 5728 5728 5726 5724 5723 5722 5722 5723 5724 5721 5717 5717 5721 5723 5723 5724 5722 5722 5722 5720 5717 5716 5714 5713 5712 5709 5707 5706 5705 5703 5702 5701 5700 5699 5698 5697 5697 5696 5695
5729 5727 5726 5726 5725 5725 5723 5722 5721 5720 5718 5719 5720 5720 5720 5720 5715 5715 5718 5720 5719 5718 5718 5718 5716 5714 5711 5710 5709 5707 5705 5704 5702 5701 5700 5699 5697 5697 5696 5695 5694 5693 5692
5726 5725 5723 5723 5722 5721 5720 5719 5717 5717 5717 5716 5716 5716 5715 5715 5715 5712 5710 5712 5714 5716 5715 5713 5713 5711 5709 5708 5707 5705 5703 5701 5700 5698 5697 5696 5695 5694 5693 5692 5691 5691 5690
5723 5722 5721 5719 5718 5717 5716 5715 5714 5713 5713 5712 5712 5713 5711 5710 5710 5710 5708 5707 5708 5711 5711 5710 5710 5709 5707 5706 5704 5703 5700 5698 5697 5696 5694 5693 5692 5691 5690 5690 5689 5688 5687
5719 5717 5717 5715 5714 5713 5712 5711 5710 5710 5708 5707 5707 5707 5708 5708 5709 5708 5705 5705 5704 5707 5706 5706 5707 5706 5705 5703 5702 5699 5697 5695 5694 5693 5691 5690 5689 5688 5687 5687 5686 5685 5684
5717 5714 5712 5711 5710 5709 5708 5707 5707 5706 5704 5703 5703 5703 5703 5704 5705 5704 5702 5700 5698 5700 5702 5703 5704 5703 5702 5700 5698 5695 5694 5692 5691 5690 5689 5688 5687 5686 5685 5683 5683 5682 5682
5713 5710 5708 5707 5706 5704 5703 5702 5702 5701 5700 5699 5700 5699 5699 5700 5700 5700 5700 5698 5695 5692 5694 5697 5698 5699 5697 5695 5694 5692 5691 5690 5688 5687 5686 5685 5684 5683 5682 5681 5680 5679 5678
5707 5706 5704 5703 5701 5700 5699 5697 5698 5697 5695 5694 5694 5693 5693 5695 5695 5695 5695 5695 5694 5691 5690 5694 5694 5695 5692 5692 5690 5689 5688 5686 5685 5684 5683 5682 5681 5680 5679 5678 5677 5676 5676
5702 5701 5700 5698 5696 5695 5694 5692 5692 5691 5690 5689 5689 5688 5687 5688 5688 5690 5690 5690 5689 5688 5685 5689 5691 5690 5687 5685 5685 5684 5684 5684 5683 5681 5680 5679 5678 5678 5677 5676 5675 5674 5673
5699 5697 5695 5694 5692 5690 5689 5687 5686 5686 5685 5684 5683 5683 5682 5682 5681 5682 5682 5683 5683 5683 5681 5681 5683 5683 5681 5680 5680 5678 5680 5681 5681 5679 5678 5676 5675 5675 5674 5673 5672 5671 5670
5694 5693 5691 5689 5687 5685 5684 5683 5682 5681 5680 5679 5678 5677 5677 5676 5675 5676 5675 5676 5677 5678 5677 5676 5677 5678 5677 5676 5674 5674 5675 5675 5676 5676 5675 5674 5673 5672 5671 5671 5669 5668 5667
5689 5687 5686 5684 5682 5681 5679 5678 5677 5676 5674 5674 5673 5672 5672 5671 5670 5670 5670 5670 5671 5671 5671 5671 5672 5672 5671 5671 5669 5669 5669 5670 5671 5673 5671 5672 5671 5670 5670 5669 5667 5666 5664
5685 5682 5680 5679 5677 5676 5674 5672 5671 5670 5669 5668 5667 5667 5666 5665 5663 5663 5664 5664 5664 5665 5665 5665 5665 5666 5665 5664 5664 5665 5665 5666 5667 5668 5668 5669 5670 5670 5669 5667 5665 5663 5661
5678 5677 5675 5673 5671 5670 5665 5662 5663 5664 5663 5662 5661 5660 5660 5658 5656 5654 5654 5654 5655 5657 5658 5658 5659 5658 5658 5660 5660 5661 5660 5660 5661 5664 5663 5665 5667 5667 5668 5667 5665 5662 5659
5671 5670 5668 5667 5664 5661 5657 5655 5654 5656 5656 5655 5654 5653 5654 5654 5651 5651 5648 5647 5647 5647 5647 5649 5651 5652 5653 5654 5653 5654 5654 5654 5655 5658 5656 5658 5660 5662 5664 5664 5661 5658 5656
5665 5663 5662 5660 5658 5654 5650 5648 5647 5649 5650 5649 5648 5647 5646 5646 5646 5644 5644 5643 5643 5643 5642 5642 5644 5645 5646 5646 5646 5646 5646 5647 5649 5651 5652 5651 5655 5657 5660 5659 5657 5655 5652
5658 5657 5656 5654 5652 5649 5644 5642 5640 5643 5644 5644 5643 5642 5641 5639 5636 5635 5636 5637 5637 5637 5636 5635 5635 5635 5635 5636 5636 5638 5639 5640 5642 5646 5648 5647 5650 5652 5653 5654 5653 5651 5649
5654 5652 5651 5649 5647 5644 5638 5636 5634 5640 5639 5639 5638 5637 5633 5632 5629 5628 5630 5631 5630 5631 5632 5631 5629 5629 5630 5631 5630 5630 5634 5634 5636 5638 5642 5640 5642 5644 5644 5649 5649 5647 5645